Location: Amanico Ergina Village
(37.7824°N, 122.4366°W)
Time: 20:36:44
(UTC+00:00)

Meteor 1-31 Rocket - Pass Details

Date: 29 October 2020
Orbit: 521 x 546 km, 97.6° (Epoch: 24 November)

Event Time Altitude Azimuth Distance (km) Brightness Sun altitude
Rises 13:41:04 0° 358° (N) 2,720 6.2 -10.8°
Reaches altitude 10° 13:43:27 10° 345° (NNW) 1,822 5.2 -10.3°
Maximum altitude 13:46:43 25° 290° (WNW) 1,117 3.8 -9.7°
Drops below altitude 10° 13:49:57 10° 234° (SW) 1,805 5.1 -9.0°
Sets 13:52:18 0° 221° (SW) 2,689 6.0 -8.6°
